SILO ALERT LOG


Silo ID Alert Type Alert Message Silo Type Points Depth (mm) Strength Temperature (°C) Humidity (%) Height (mm) Volume (㎥) Weight (t) Flag Time
WJWJR01 Humidity 습도센서 측정값이 80% 초과 71 7634 2058 20.2 86.7 5 0.616 0.389 0 2026-05-27 05:25:53.000
WJWJR05 Humidity 습도센서 측정값이 80% 초과 68 7715 2122 20.9 82.6 14 1.605 1.015 0 2026-05-27 04:26:16.000
WJWJR01 Humidity 습도센서 측정값이 80% 초과 70 7639 2060 20.4 86.2 0 0.091 0.057 0 2026-05-27 04:25:52.000
WJWJR05 Humidity 습도센서 측정값이 80% 초과 68 7697 2091 21.3 81.8 32 3.665 2.317 0 2026-05-27 03:26:19.000
WJWJR01 Humidity 습도센서 측정값이 80% 초과 71 7634 2043 20.8 85.7 5 0.604 0.382 0 2026-05-27 03:26:02.000
WJWJR05 Humidity 습도센서 측정값이 80% 초과 67 7717 2108 21.6 80.9 12 1.408 0.89 0 2026-05-27 02:26:15.000
WJWJR01 Humidity 습도센서 측정값이 80% 초과 71 7638 2031 21.2 84.7 1 0.136 0.086 0 2026-05-27 02:25:54.000
WJWJR01 Humidity 습도센서 측정값이 80% 초과 70 7629 2030 21.5 83.5 10 1.139 0.72 0 2026-05-27 01:25:54.000
WJWJR01 Humidity 습도센서 측정값이 80% 초과 69 7633 2028 22 82.1 6 0.693 0.438 0 2026-05-27 00:25:57.000
WJWJR01 Humidity 습도센서 측정값이 80% 초과 70 7641 2035 22.5 80.3 -1 -0.145 0 0 2026-05-26 23:25:57.000
WJWJR05 Humidity 습도센서 측정값이 80% 초과 68 7618 2090 21.6 83.1 111 12.631 7.985 0 2026-05-26 09:26:15.000
WJWJR01 Humidity 습도센서 측정값이 80% 초과 70 7636 2040 21.9 81.3 3 0.435 0.275 0 2026-05-26 09:25:53.000
WJWJR05 Humidity 습도센서 측정값이 80% 초과 68 7719 2067 20 80.8 10 1.171 0.74 0 2026-05-26 08:26:10.000
WJWJR01 Humidity 습도센서 측정값이 80% 초과 70 7643 2039 19.6 84.8 -3 -0.433 0 0 2026-05-26 08:25:54.000
WJWJR01 Humidity 습도센서 측정값이 80% 초과 71 7637 2044 18.9 81.6 2 0.252 0.16 0 2026-05-26 07:25:57.000
WJWJR05 Humidity 습도센서 측정값이 80% 초과 68 7731 2042 19.7 82.4 -1 -0.172 0 0 2026-05-25 09:26:14.000
WJWJR01 Humidity 습도센서 측정값이 80% 초과 70 7640 2071 15.1 81.7 0 -0.032 0 0 2026-05-22 07:25:51.000
WJWJR01 Humidity 습도센서 측정값이 80% 초과 70 7640 2093 14.8 82.4 0 -0.044 0 0 2026-05-22 06:25:55.000
WJWJR01 Humidity 습도센서 측정값이 80% 초과 69 7639 2073 14.9 82.3 0 0.037 0.024 0 2026-05-22 05:25:54.000
WJWJR01 Humidity 습도센서 측정값이 80% 초과 70 7635 2086 15.2 81.8 4 0.471 0.298 0 2026-05-22 04:25:56.000

[첫 페이지] [60] [61] [62] [63] 64 [65] [66] [마지막 페이지]